[Iaude] MPEC F25: 2024 FM [a=1.31,e=0.34,i=4.7,H=27.8]
    mpec at cfa.harvard.edu 
    mpec at cfa.harvard.edu
       
    Tue Mar 19 04:18:12 EDT 2024
    
    
  
M.P.E.C. 2024-F25                                Issued 2024 March 19, 08:16 UT
     The Minor Planet Electronic Circulars contain information on unusual
         minor planets, routine data on comets and natural satellites,
         and occasional editorial announcements.  They are published
    on behalf of Division F of the International Astronomical Union by the
          Minor Planet Center, Smithsonian Astrophysical Observatory,
                          Cambridge, MA 02138, U.S.A.
			  
             Prepared using the Tamkin Foundation Computer Network
                              MPC at CFA.HARVARD.EDU
            URL https://www.minorplanetcenter.net/    ISSN 1523-6714
                                    2024 FM                                     
Observations:
     K24F00M* C2024 03 17.42158311 26 46.109+05 44 53.54         20.51wXEF025F51
     K24F00M  C2024 03 17.43374511 26 54.045+05 45 53.36         20.71wXEF025F51
     K24F00M  C2024 03 17.44588811 27 01.906+05 46 52.60         20.80wXEF025F51
     K24F00M  C2024 03 17.53345511 27 58.850+05 53 49.39         20.44GVEF025F51
     K24F00M  C2024 03 17.53427111 27 59.388+05 53 53.21         20.49GVEF025F51
     K24F00M |C2024 03 19.21952011 44 43.960+07 41 35.10         21.2 GVEF025807
     K24F00M |C2024 03 19.22399011 44 45.700+07 41 47.40         21.2 GVEF025807
     K24F00M |C2024 03 19.22831011 44 47.380+07 42 00.10         21.2 GVEF025807
     K24F00M KC2024 03 19.31941211 45 31.309+07 42 29.63         21.38GVEF025I52
     K24F00M KC2024 03 19.32183811 45 32.260+07 42 36.22         21.17GVEF025I52
Observer details:
807 Cerro Tololo Observatory, La Serena.  Observers T. Linder, R. Holmes.
    0.61-m f/6.8 Ritchey-Chretien + CCD.
F51 Pan-STARRS 1, Haleakala.  Observers J. Herman, T. Lowe, P. Minguez, A.
    Schultz, I. Smith.  Measurers K. Chambers, T. de Boer, J. Fairlamb, H.
    Gao, M. Huber, C.-C. Lin, E. Magnier, Y. Ramanjooloo, R. Wainscoat, R.
    Weryk.  1.8-m Ritchey-Chretien + CCD.
I52 Steward Observatory, Mt. Lemmon Station.  Observer R. A. Kowalski.
    Measurers T. Beuden, V. F. Carvajal, D. Fay, J. B. Fazekas, D. C. Fuls, A.
    R. Gibbs, A. D. Grauer, H. Groeller, J. K. Hogan, R. A. Kowalski, S. M.
    Larson, G. J. Leonard, D. Rankin, R. L. Seaman, F. C. Shelly, K. W.
    Wierzchos.  1.0-m prime focus + CCD.
Orbital elements:
2024 FM                                                  Earth MOID = 0.0084 AU
Epoch 2024 Mar. 31.0 TT = JDT 2460400.5                 MPC                     
M  44.24663              (2000.0)            P               Q                  
n   0.65823617     Peri.  293.36618     -0.33266336     -0.94302852             
a   1.3088249      Node   176.05122     +0.89256995     -0.31679759             
e   0.3384118      Incl.    4.73456     +0.30439116     -0.10166858             
P   1.50           H   27.81          G   0.15           U   7                  
Residuals in seconds of arc
240317 F51  0.0   0.0     240317 F51  0.1+  0.1+    240319 I52  0.2-  0.1+
240317 F51  0.1+  0.0     240319 807  0.0   0.2+    240319 I52  0.2+  0.1-
240317 F51  0.3-  0.1-    240319 807  0.0   0.2-
240317 F51  0.1+  0.0     240319 807  0.0   0.2+
Ephemeris:
2024 FM                  a,e,i = 1.31, 0.34, 5                   q = 0.8659
Date    TT    R. A. (2000) Decl.     Delta      r    Elong.  Phase     V
2024 02 18    00 58 10.7 -15 07 14   0.1168  0.9058    42.7   132.2    28.9
...
2024 03 04    01 47 44.3 -18 33 02   0.04045 0.9622    42.7   135.7    27.1
...
2024 03 12    07 29 14.1 -17 59 16   0.01110 0.9988   117.2    62.2    20.2
...
2024 03 18    11 33 32.6 +06 29 20   0.03318 1.0282   173.0     6.8    21.0
2024 03 19    11 42 59.6 +07 28 23   0.03801 1.0333   172.5     7.2    21.3
2024 03 20    11 50 20.5 +08 13 11   0.04292 1.0383   171.7     7.9    21.6
...
2024 03 26    12 13 33.5 +10 22 21   0.07347 1.0693   167.3    11.8    23.0
...
2024 04 03    12 25 16.4 +11 02 32   0.1167  1.1118   162.6    15.6    24.2
...
2024 04 18    12 35 25.8 +10 14 55   0.2078  1.1927   152.8    22.6    25.9
A. U. Tomatic                (C) Copyright 2024 MPC           M.P.E.C. 2024-F25
    
    
More information about the Iaude
mailing list